| time (UTC) | temp F | wind direction | speed MPH | gust MPH | rain 1hr in | rain 24hr in | rain mn in | humidity % | barometer mb |
| 20260509143246 | 55 | 150 | 0.0 | 5.0 | 0.00 | 0.00 | 0.00 | 36 | 1010.6 |
| 20260509142741 | 53 | 107 | 0.0 | 0.0 | 0.00 | 0.00 | 0.00 | 40 | 1010.6 |
| 20260509142238 | 54 | 205 | 0.0 | 0.0 | 0.00 | 0.00 | 0.00 | 41 | 1010.6 |
| 20260509141733 | 55 | 254 | 0.0 | 0.0 | 0.00 | 0.00 | 0.00 | 38 | 1010.6 |
| 20260509141231 | 55 | 201 | 0.0 | 0.0 | 0.00 | 0.00 | 0.00 | 38 | 1010.6 |
| 20260509140728 | 55 | 253 | 0.0 | 0.0 | 0.00 | 0.00 | 0.00 | 39 | 1010.9 |
| 20260509140225 | 54 | 128 | 0.0 | 0.0 | 0.00 | 0.00 | 0.00 | 41 | 1010.6 |
| 20260509135722 | 54 | 161 | 0.0 | 0.0 | 0.00 | 0.00 | 0.00 | 42 | 1010.6 |
| 20260509135220 | 54 | 191 | 0.0 | 0.0 | 0.00 | 0.00 | 0.00 | 43 | 1010.6 |
| 20260509134717 | 53 | 236 | 0.0 | 0.0 | 0.00 | 0.00 | 0.00 | 41 | 1010.6 |
| 20260509134214 | 53 | 244 | 0.0 | 0.0 | 0.00 | 0.00 | 0.00 | 44 | 1010.6 |
| 20260509133711 | 53 | 217 | 0.0 | 0.0 | 0.00 | 0.00 | 0.00 | 44 | 1010.6 |
| 20260509133208 | 53 | 167 | 0.0 | 0.0 | 0.00 | 0.00 | 0.00 | 44 | 1010.6 |
| 20260509132707 | 53 | 113 | 0.0 | 0.0 | 0.00 | 0.00 | 0.00 | 45 | 1010.6 |
| 20260509132205 | 52 | 144 | 0.0 | 0.0 | 0.00 | 0.00 | 0.00 | 45 | 1010.6 |
| 20260509131701 | 52 | 222 | 0.0 | 0.0 | 0.00 | 0.00 | 0.00 | 47 | 1010.6 |
| 20260509131158 | 53 | 272 | 0.0 | 0.0 | 0.00 | 0.00 | 0.00 | 46 | 1010.6 |
| 20260509130653 | 52 | 157 | 0.0 | 0.0 | 0.00 | 0.00 | 0.00 | 47 | 1010.6 |
| 20260509130150 | 51 | 225 | 0.0 | 0.0 | 0.00 | 0.00 | 0.00 | 49 | 1010.6 |
| 20260509125646 | 51 | 232 | 0.0 | 0.0 | 0.00 | 0.00 | 0.00 | 46 | 1010.6 |
| 20260509125143 | 51 | 288 | 0.0 | 0.0 | 0.00 | 0.00 | 0.00 | 48 | 1010.6 |
| 20260509124640 | 50 | 254 | 0.0 | 0.0 | 0.00 | 0.00 | 0.00 | 49 | 1010.6 |
| 20260509124137 | 50 | 177 | 0.0 | 0.0 | 0.00 | 0.00 | 0.00 | 49 | 1010.6 |
| 20260509123634 | 49 | 204 | 0.0 | 0.0 | 0.00 | 0.00 | 0.00 | 50 | 1010.6 |
| 20260509123131 | 50 | 246 | 0.0 | 0.0 | 0.00 | 0.00 | 0.00 | 50 | 1010.6 |
| 20260509122627 | 48 | 221 | 0.0 | 0.0 | 0.00 | 0.00 | 0.00 | 53 | 1010.6 |
| 20260509122124 | 49 | 226 | 0.0 | 0.0 | 0.00 | 0.00 | 0.00 | 51 | 1010.6 |
| 20260509121621 | 50 | 220 | 0.0 | 0.0 | 0.00 | 0.00 | 0.00 | 49 | 1010.2 |
| 20260509121119 | 49 | 238 | 0.0 | 0.0 | 0.00 | 0.00 | 0.00 | 52 | 1010.2 |
| 20260509120616 | 49 | 311 | 0.0 | 0.0 | 0.00 | 0.00 | 0.00 | 52 | 1010.2 |
| 20260509120115 | 48 | 193 | 0.0 | 0.0 | 0.00 | 0.00 | 0.00 | 53 | 1010.2 |
| 20260509115612 | 48 | 134 | 0.0 | 0.0 | 0.00 | 0.00 | 0.00 | 53 | 1010.2 |
| 20260509115109 | 47 | 205 | 0.0 | 0.0 | 0.00 | 0.00 | 0.00 | 54 | 1010.2 |
| 20260509114607 | 45 | 245 | 0.0 | 0.0 | 0.00 | 0.00 | 0.00 | 56 | 1010.2 |
| 20260509114106 | 45 | 242 | 0.0 | 0.0 | 0.00 | 0.00 | 0.00 | 57 | 1009.9 |
| 20260509113603 | 44 | 174 | 0.0 | 0.0 | 0.00 | 0.00 | 0.00 | 60 | 1010.2 |
| 20260509113101 | 44 | 236 | 0.0 | 0.0 | 0.00 | 0.00 | 0.00 | 61 | 1009.9 |
| 20260509112557 | 43 | 191 | 0.0 | 0.0 | 0.00 | 0.00 | 0.00 | 63 | 1010.2 |
| 20260509112054 | 42 | 196 | 0.0 | 0.0 | 0.00 | 0.00 | 0.00 | 63 | 1009.9 |
| 20260509111551 | 42 | 192 | 0.0 | 0.0 | 0.00 | 0.00 | 0.00 | 64 | 1009.9 |
| 20260509111048 | 41 | 240 | 0.0 | 0.0 | 0.00 | 0.00 | 0.00 | 65 | 1009.9 |
| 20260509110545 | 40 | 186 | 0.0 | 0.0 | 0.00 | 0.00 | 0.00 | 66 | 1009.9 |
| 20260509110042 | 40 | 256 | 0.0 | 0.0 | 0.00 | 0.00 | 0.00 | 66 | 1009.9 |
| 20260509105540 | 40 | 190 | 0.0 | 0.0 | 0.00 | 0.00 | 0.00 | 66 | 1009.9 |
| 20260509105038 | 40 | 214 | 0.0 | 0.0 | 0.00 | 0.00 | 0.00 | 66 | 1009.5 |
| 20260509104534 | 40 | 196 | 0.0 | 0.0 | 0.00 | 0.00 | 0.00 | 68 | 1009.5 |
| 20260509104031 | 40 | 183 | 0.0 | 0.0 | 0.00 | 0.00 | 0.00 | 69 | 1009.5 |
| 20260509103529 | 39 | 210 | 0.0 | 0.0 | 0.00 | 0.00 | 0.00 | 71 | 1009.5 |
| 20260509103027 | 39 | 161 | 0.0 | 0.0 | 0.00 | 0.00 | 0.00 | 72 | 1009.5 |
| 20260509102524 | 38 | 180 | 0.0 | 0.0 | 0.00 | 0.00 | 0.00 | 74 | 1009.1 |
| 20260509102021 | 37 | 152 | 0.0 | 0.0 | 0.00 | 0.00 | 0.00 | 76 | 1009.1 |
| 20260509101517 | 37 | 193 | 0.0 | 0.0 | 0.00 | 0.00 | 0.00 | 78 | 1009.1 |
| 20260509101014 | 35 | 177 | 0.0 | 0.0 | 0.00 | 0.00 | 0.00 | 78 | 1009.1 |
| 20260509100512 | 35 | 193 | 0.0 | 0.0 | 0.00 | 0.00 | 0.00 | 78 | 1008.8 |
| 20260509100009 | 34 | 199 | 0.0 | 0.0 | 0.00 | 0.00 | 0.00 | 78 | 1008.8 |
| 20260509095505 | 34 | 195 | 0.0 | 0.0 | 0.00 | 0.00 | 0.00 | 78 | 1008.8 |
| 20260509095003 | 34 | 197 | 0.0 | 0.0 | 0.00 | 0.00 | 0.00 | 78 | 1008.8 |
| 20260509094459 | 35 | 189 | 0.0 | 0.0 | 0.00 | 0.00 | 0.00 | 78 | 1008.8 |
| 20260509093956 | 35 | 200 | 0.0 | 0.0 | 0.00 | 0.00 | 0.00 | 78 | 1008.8 |
| 20260509093454 | 35 | 203 | 0.0 | 0.0 | 0.00 | 0.00 | 0.00 | 78 | 1008.8 |
| 20260509092951 | 34 | 195 | 0.0 | 0.0 | 0.00 | 0.00 | 0.00 | 78 | 1008.8 |
| 20260509092449 | 34 | 197 | 0.0 | 0.0 | 0.00 | 0.00 | 0.00 | 78 | 1008.4 |
| 20260509091947 | 34 | 190 | 0.0 | 0.0 | 0.00 | 0.00 | 0.00 | 78 | 1008.4 |
| 20260509091438 | 34 | 199 | 0.0 | 0.0 | 0.00 | 0.00 | 0.00 | 77 | 1008.4 |
| 20260509090936 | 34 | 205 | 0.0 | 0.0 | 0.00 | 0.00 | 0.00 | 77 | 1008.4 |
| 20260509090433 | 33 | 201 | 0.0 | 0.0 | 0.00 | 0.00 | 0.00 | 76 | 1008.4 |
| 20260509085931 | 33 | 198 | 0.0 | 0.0 | 0.00 | 0.00 | 0.00 | 76 | 1008.4 |
| 20260509085427 | 34 | 179 | 0.0 | 0.0 | 0.00 | 0.00 | 0.00 | 75 | 1008.4 |
| 20260509084923 | 34 | 180 | 0.0 | 0.0 | 0.00 | 0.00 | 0.00 | 75 | 1008.4 |
| 20260509084420 | 34 | 192 | 0.0 | 0.0 | 0.00 | 0.00 | 0.00 | 75 | 1008.4 |
| 20260509083918 | 35 | 194 | 0.0 | 0.0 | 0.00 | 0.00 | 0.00 | 75 | 1008.4 |
| 20260509083415 | 35 | 187 | 0.0 | 0.0 | 0.00 | 0.00 | 0.00 | 74 | 1008.1 |
| 20260509082911 | 35 | 196 | 0.0 | 0.0 | 0.00 | 0.00 | 0.00 | 74 | 1008.1 |
| 20260509082409 | 36 | 193 | 0.0 | 0.0 | 0.00 | 0.00 | 0.00 | 74 | 1008.1 |
| 20260509081905 | 36 | 204 | 0.0 | 0.0 | 0.00 | 0.00 | 0.00 | 74 | 1008.1 |
| 20260509081403 | 36 | 201 | 0.0 | 0.0 | 0.00 | 0.00 | 0.00 | 74 | 1008.4 |
| 20260509080900 | 36 | 191 | 0.0 | 0.0 | 0.00 | 0.00 | 0.00 | 73 | 1008.4 |
| 20260509080358 | 36 | 188 | 0.0 | 0.0 | 0.00 | 0.00 | 0.00 | 73 | 1008.1 |
| 20260509075856 | 36 | 194 | 0.0 | 0.0 | 0.00 | 0.00 | 0.00 | 73 | 1008.1 |
| 20260509075353 | 37 | 198 | 0.0 | 0.0 | 0.00 | 0.00 | 0.00 | 72 | 1008.1 |
| 20260509074850 | 37 | 192 | 0.0 | 0.0 | 0.00 | 0.00 | 0.00 | 72 | 1008.1 |
| 20260509074348 | 37 | 190 | 0.0 | 0.0 | 0.00 | 0.00 | 0.00 | 71 | 1008.1 |
| 20260509073843 | 37 | 187 | 0.0 | 0.0 | 0.00 | 0.00 | 0.00 | 71 | 1008.1 |
| 20260509073340 | 37 | 192 | 0.0 | 0.0 | 0.00 | 0.00 | 0.00 | 70 | 1007.7 |
| 20260509072837 | 38 | 195 | 0.0 | 0.0 | 0.00 | 0.00 | 0.00 | 70 | 1008.1 |
| 20260509072333 | 38 | 195 | 0.0 | 0.0 | 0.00 | 0.00 | 0.00 | 70 | 1008.1 |
| 20260509071830 | 38 | 183 | 0.0 | 0.0 | 0.00 | 0.00 | 0.00 | 70 | 1008.1 |
| 20260509071327 | 38 | 195 | 0.0 | 0.0 | 0.00 | 0.00 | 0.00 | 69 | 1008.1 |
| 20260509070824 | 39 | 161 | 0.0 | 0.0 | 0.00 | 0.00 | 0.00 | 69 | 1007.7 |
| 20260509070321 | 39 | 212 | 0.0 | 0.0 | 0.00 | 0.00 | 0.00 | 69 | 1007.7 |
| 20260509065818 | 39 | 220 | 0.0 | 0.0 | 0.00 | 0.00 | 0.00 | 68 | 1007.7 |
| 20260509065314 | 39 | 225 | 0.0 | 0.0 | 0.00 | 0.00 | 0.00 | 68 | 1007.7 |
| 20260509064809 | 39 | 190 | 0.0 | 0.0 | 0.00 | 0.00 | 0.00 | 68 | 1007.7 |
| 20260509064307 | 39 | 213 | 0.0 | 0.0 | 0.00 | 0.00 | 0.00 | 67 | 1007.7 |
| 20260509063805 | 39 | 242 | 0.0 | 0.0 | 0.00 | 0.00 | 0.00 | 68 | 1007.7 |
| 20260509063301 | 39 | 217 | 0.0 | 0.0 | 0.00 | 0.00 | 0.00 | 68 | 1007.7 |
| 20260509062758 | 39 | 214 | 0.0 | 0.0 | 0.00 | 0.00 | 0.00 | 68 | 1007.7 |
| 20260509062255 | 39 | 216 | 0.0 | 0.0 | 0.00 | 0.00 | 0.00 | 67 | 1007.7 |
| 20260509061752 | 39 | 213 | 0.0 | 0.0 | 0.00 | 0.00 | 0.00 | 68 | 1007.7 |
| 20260509061250 | 39 | 205 | 0.0 | 0.0 | 0.00 | 0.00 | 0.00 | 68 | 1007.7 |
| 20260509060747 | 39 | 217 | 0.0 | 0.0 | 0.00 | 0.00 | 0.00 | 67 | 1007.4 |
| 20260509060243 | 39 | 242 | 0.0 | 0.0 | 0.00 | 0.00 | 0.00 | 68 | 1007.4 |
| 20260509055739 | 39 | 217 | 0.0 | 0.0 | 0.00 | 0.00 | 0.00 | 68 | 1007.4 |
| 20260509055235 | 39 | 220 | 0.0 | 0.0 | 0.00 | 0.00 | 0.00 | 68 | 1007.4 |
| 20260509054732 | 38 | 242 | 0.0 | 0.0 | 0.00 | 0.00 | 0.00 | 68 | 1007.4 |
| 20260509054229 | 39 | 196 | 0.0 | 0.0 | 0.00 | 0.00 | 0.00 | 68 | 1007.4 |
| 20260509053727 | 39 | 198 | 0.0 | 0.0 | 0.00 | 0.00 | 0.00 | 68 | 1007.4 |
| 20260509053224 | 39 | 183 | 0.0 | 0.0 | 0.00 | 0.00 | 0.00 | 68 | 1007.4 |
| 20260509052722 | 38 | 176 | 0.0 | 0.0 | 0.00 | 0.00 | 0.00 | 68 | 1007.1 |
| 20260509052219 | 38 | 225 | 0.0 | 0.0 | 0.00 | 0.00 | 0.00 | 69 | 1007.1 |
| 20260509051717 | 38 | 202 | 0.0 | 0.0 | 0.00 | 0.00 | 0.00 | 69 | 1007.1 |
| 20260509051215 | 38 | 220 | 0.0 | 0.0 | 0.00 | 0.00 | 0.00 | 69 | 1007.1 |
| 20260509050711 | 38 | 223 | 0.0 | 0.0 | 0.00 | 0.00 | 0.00 | 69 | 1007.1 |
| 20260509050208 | 37 | 237 | 0.0 | 0.0 | 0.00 | 0.00 | 0.00 | 70 | 1007.1 |
| 20260509045705 | 37 | 228 | 0.0 | 0.0 | 0.00 | 0.00 | 0.00 | 70 | 1007.1 |
| 20260509045202 | 37 | 209 | 0.0 | 0.0 | 0.00 | 0.00 | 0.00 | 70 | 1007.1 |
| 20260509044659 | 37 | 225 | 0.0 | 0.0 | 0.00 | 0.00 | 0.00 | 71 | 1007.1 |
| 20260509044156 | 37 | 202 | 0.0 | 0.0 | 0.00 | 0.00 | 0.00 | 70 | 1007.1 |
| 20260509043653 | 37 | 203 | 0.0 | 0.0 | 0.00 | 0.00 | 0.00 | 70 | 1006.7 |
| 20260509043149 | 37 | 200 | 0.0 | 0.0 | 0.00 | 0.00 | 0.00 | 70 | 1006.7 |
| 20260509042645 | 37 | 210 | 0.0 | 0.0 | 0.00 | 0.00 | 0.00 | 70 | 1006.7 |
| 20260509042141 | 37 | 220 | 0.0 | 0.0 | 0.00 | 0.00 | 0.00 | 69 | 1006.7 |
| 20260509041638 | 38 | 211 | 0.0 | 0.0 | 0.00 | 0.00 | 0.00 | 69 | 1006.7 |
| 20260509041136 | 38 | 207 | 0.0 | 0.0 | 0.00 | 0.00 | 0.00 | 69 | 1006.7 |
| 20260509040634 | 38 | 202 | 0.0 | 0.0 | 0.00 | 0.00 | 0.00 | 69 | 1006.7 |
| 20260509040131 | 39 | 205 | 0.0 | 0.0 | 0.00 | 0.00 | 0.00 | 69 | 1006.7 |
| 20260509035627 | 39 | 219 | 0.0 | 0.0 | 0.00 | 0.00 | 0.00 | 69 | 1006.7 |
| 20260509035124 | 39 | 205 | 0.0 | 0.0 | 0.00 | 0.00 | 0.00 | 69 | 1006.7 |
| 20260509034622 | 39 | 202 | 0.0 | 0.0 | 0.00 | 0.00 | 0.00 | 68 | 1006.7 |
| 20260509034119 | 39 | 229 | 0.0 | 0.0 | 0.00 | 0.00 | 0.00 | 68 | 1006.4 |
| 20260509033615 | 39 | 196 | 0.0 | 0.0 | 0.00 | 0.00 | 0.00 | 68 | 1006.4 |
| 20260509033112 | 39 | 208 | 0.0 | 0.0 | 0.00 | 0.00 | 0.00 | 68 | 1006.7 |
| 20260509032610 | 39 | 194 | 0.0 | 0.0 | 0.00 | 0.00 | 0.00 | 68 | 1006.4 |
| 20260509032107 | 39 | 200 | 0.0 | 0.0 | 0.00 | 0.00 | 0.00 | 68 | 1006.4 |
| 20260509031604 | 39 | 197 | 0.0 | 0.0 | 0.00 | 0.00 | 0.00 | 67 | 1006.4 |
| 20260509031102 | 39 | 188 | 0.0 | 0.0 | 0.00 | 0.00 | 0.00 | 67 | 1006.4 |
| 20260509030600 | 39 | 239 | 0.0 | 0.0 | 0.00 | 0.00 | 0.00 | 67 | 1006.4 |
| 20260509030056 | 39 | 209 | 0.0 | 0.0 | 0.00 | 0.00 | 0.00 | 67 | 1006.4 |
| 20260509025552 | 40 | 190 | 0.0 | 0.0 | 0.00 | 0.00 | 0.00 | 66 | 1006.4 |
| 20260509025048 | 40 | 192 | 0.0 | 0.0 | 0.00 | 0.00 | 0.00 | 65 | 1006.7 |
| 20260509024544 | 41 | 196 | 0.0 | 0.0 | 0.00 | 0.00 | 0.00 | 64 | 1006.4 |
| 20260509024040 | 41 | 203 | 0.0 | 0.0 | 0.00 | 0.00 | 0.00 | 64 | 1006.4 |
| 20260509023538 | 42 | 226 | 0.0 | 0.0 | 0.00 | 0.00 | 0.00 | 63 | 1006.1 |
| 20260509023035 | 42 | 257 | 0.0 | 0.0 | 0.00 | 0.00 | 0.00 | 62 | 1006.1 |
| 20260509022531 | 42 | 227 | 0.0 | 0.0 | 0.00 | 0.00 | 0.00 | 62 | 1006.1 |
| 20260509022029 | 42 | 218 | 0.0 | 0.0 | 0.00 | 0.00 | 0.00 | 62 | 1006.1 |
| 20260509021526 | 42 | 198 | 0.0 | 0.0 | 0.00 | 0.00 | 0.00 | 63 | 1006.4 |
| 20260509021023 | 42 | 217 | 0.0 | 0.0 | 0.00 | 0.00 | 0.00 | 63 | 1006.1 |
| 20260509020522 | 42 | 198 | 0.0 | 0.0 | 0.00 | 0.00 | 0.00 | 63 | 1006.1 |
| 20260509020018 | 43 | 233 | 0.0 | 0.0 | 0.00 | 0.00 | 0.00 | 62 | 1006.1 |
| 20260509015517 | 42 | 216 | 0.0 | 0.0 | 0.00 | 0.00 | 0.00 | 63 | 1006.1 |
| 20260509015014 | 42 | 235 | 0.0 | 0.0 | 0.00 | 0.00 | 0.00 | 64 | 1006.1 |
| 20260509014511 | 43 | 190 | 0.0 | 0.0 | 0.00 | 0.00 | 0.00 | 63 | 1006.1 |
| 20260509014007 | 43 | 240 | 0.0 | 0.0 | 0.00 | 0.00 | 0.00 | 63 | 1006.1 |
| 20260509013504 | 43 | 214 | 0.0 | 0.0 | 0.00 | 0.00 | 0.00 | 64 | 1006.1 |
| 20260509012959 | 42 | 196 | 0.0 | 0.0 | 0.00 | 0.00 | 0.00 | 64 | 1006.1 |
| 20260509012456 | 43 | 198 | 0.0 | 0.0 | 0.00 | 0.00 | 0.00 | 64 | 1006.1 |
| 20260509011953 | 43 | 204 | 0.0 | 0.0 | 0.00 | 0.00 | 0.00 | 63 | 1005.7 |
| 20260509011451 | 43 | 244 | 0.0 | 0.0 | 0.00 | 0.00 | 0.00 | 63 | 1005.7 |
| 20260509010948 | 43 | 236 | 0.0 | 0.0 | 0.00 | 0.00 | 0.00 | 64 | 1005.7 |
| 20260509010446 | 43 | 202 | 0.0 | 0.0 | 0.00 | 0.00 | 0.00 | 63 | 1005.7 |
| 20260509005942 | 43 | 247 | 0.0 | 0.0 | 0.00 | 0.00 | 0.00 | 64 | 1005.7 |
| 20260509005441 | 42 | 183 | 0.0 | 0.0 | 0.00 | 0.00 | 0.00 | 64 | 1005.7 |
| 20260509004940 | 42 | 201 | 0.0 | 0.0 | 0.00 | 0.00 | 0.00 | 64 | 1005.4 |
| 20260509004437 | 42 | 221 | 0.0 | 0.0 | 0.00 | 0.00 | 0.00 | 66 | 1005.4 |
| 20260509003935 | 42 | 224 | 0.0 | 0.0 | 0.00 | 0.00 | 0.00 | 65 | 1005.4 |
| 20260509003433 | 42 | 245 | 0.0 | 0.0 | 0.00 | 0.00 | 0.00 | 65 | 1005.4 |
| 20260509002929 | 42 | 206 | 0.0 | 2.0 | 0.00 | 0.00 | 0.00 | 65 | 1005.4 |
| 20260509002427 | 42 | 226 | 0.0 | 0.0 | 0.00 | 0.00 | 0.00 | 65 | 1004.9 |
| 20260509001924 | 43 | 207 | 0.0 | 0.0 | 0.00 | 0.00 | 0.00 | 65 | 1004.9 |
| 20260509001421 | 43 | 237 | 0.0 | 0.0 | 0.00 | 0.00 | 0.00 | 64 | 1004.9 |
| 20260509000918 | 43 | 231 | 0.0 | 0.0 | 0.00 | 0.00 | 0.00 | 64 | 1004.9 |
| 20260509000418 | 43 | 207 | 0.0 | 0.0 | 0.00 | 0.00 | 0.00 | 64 | 1004.9 |
| 20260508235911 | 43 | 190 | 0.0 | 0.0 | 0.00 | 0.00 | 0.00 | 64 | 1004.9 |
| 20260508235409 | 43 | 198 | 0.0 | 0.0 | 0.00 | 0.00 | 0.00 | 63 | 1004.6 |
| 20260508234906 | 43 | 207 | 0.0 | 0.0 | 0.00 | 0.00 | 0.00 | 62 | 1004.6 |
| 20260508234402 | 43 | 202 | 0.0 | 0.0 | 0.00 | 0.00 | 0.00 | 61 | 1004.6 |
| 20260508233901 | 44 | 211 | 0.0 | 0.0 | 0.00 | 0.00 | 0.00 | 61 | 1004.6 |
| 20260508233400 | 44 | 196 | 0.0 | 0.0 | 0.00 | 0.00 | 0.00 | 61 | 1004.3 |
| 20260508232856 | 44 | 202 | 0.0 | 0.0 | 0.00 | 0.00 | 0.00 | 59 | 1004.6 |
| 20260508232352 | 45 | 229 | 0.0 | 0.0 | 0.00 | 0.00 | 0.00 | 59 | 1004.3 |
| 20260508231851 | 45 | 229 | 0.0 | 0.0 | 0.00 | 0.00 | 0.00 | 58 | 1004.3 |
| 20260508231347 | 45 | 198 | 0.0 | 0.0 | 0.00 | 0.00 | 0.00 | 57 | 1004.3 |
| 20260508230843 | 46 | 189 | 0.0 | 0.0 | 0.00 | 0.00 | 0.00 | 57 | 1004.3 |
| 20260508230340 | 46 | 212 | 0.0 | 0.0 | 0.00 | 0.00 | 0.00 | 56 | 1004.3 |
| 20260508225838 | 46 | 198 | 0.0 | 0.0 | 0.00 | 0.00 | 0.00 | 55 | 1004.3 |
| 20260508225334 | 46 | 145 | 0.0 | 0.0 | 0.00 | 0.00 | 0.00 | 54 | 1003.9 |
| 20260508224832 | 47 | 252 | 0.0 | 0.0 | 0.00 | 0.00 | 0.00 | 54 | 1003.9 |
| 20260508224329 | 46 | 239 | 0.0 | 0.0 | 0.00 | 0.00 | 0.00 | 54 | 1004.3 |
| 20260508223827 | 46 | 231 | 0.0 | 0.0 | 0.00 | 0.00 | 0.00 | 53 | 1003.9 |
| 20260508223324 | 47 | 256 | 0.0 | 0.0 | 0.00 | 0.00 | 0.00 | 52 | 1003.9 |
| 20260508222822 | 46 | 242 | 0.0 | 0.0 | 0.00 | 0.00 | 0.00 | 52 | 1003.9 |
| 20260508222318 | 46 | 226 | 0.0 | 0.0 | 0.00 | 0.00 | 0.00 | 52 | 1003.6 |
| 20260508221815 | 46 | 207 | 0.0 | 0.0 | 0.00 | 0.00 | 0.00 | 51 | 1003.6 |
| 20260508221310 | 47 | 241 | 0.0 | 0.0 | 0.00 | 0.00 | 0.00 | 51 | 1003.6 |
| 20260508220807 | 47 | 193 | 0.0 | 0.0 | 0.00 | 0.00 | 0.00 | 49 | 1003.6 |
| 20260508220304 | 47 | 287 | 0.0 | 5.0 | 0.00 | 0.00 | 0.00 | 49 | 1003.6 |
| 20260508215800 | 47 | 232 | 0.0 | 0.0 | 0.00 | 0.00 | 0.00 | 47 | 1003.6 |
| 20260508215257 | 48 | 219 | 0.0 | 0.0 | 0.00 | 0.00 | 0.00 | 49 | 1003.6 |
| 20260508214754 | 48 | 239 | 0.0 | 0.0 | 0.00 | 0.00 | 0.00 | 48 | 1003.2 |
| 20260508214251 | 48 | 190 | 0.0 | 0.0 | 0.00 | 0.00 | 0.00 | 48 | 1003.2 |
| 20260508213747 | 48 | 264 | 0.0 | 0.0 | 0.00 | 0.00 | 0.00 | 47 | 1003.2 |
| 20260508213244 | 49 | 277 | 0.0 | 0.0 | 0.00 | 0.00 | 0.00 | 47 | 1003.2 |
| 20260508212735 | 49 | 253 | 0.0 | 0.0 | 0.00 | 0.00 | 0.00 | 46 | 1003.2 |
| 20260508212231 | 49 | 233 | 0.0 | 0.0 | 0.00 | 0.00 | 0.00 | 44 | 1002.9 |
| 20260508211726 | 50 | 327 | 0.0 | 0.0 | 0.00 | 0.00 | 0.00 | 43 | 1003.2 |
| 20260508211223 | 50 | 255 | 0.0 | 0.0 | 0.00 | 0.00 | 0.00 | 43 | 1002.9 |
| 20260508210721 | 51 | 263 | 0.0 | 0.0 | 0.00 | 0.00 | 0.00 | 43 | 1002.9 |
| 20260508210218 | 50 | 217 | 0.0 | 0.0 | 0.00 | 0.00 | 0.00 | 40 | 1002.9 |
| 20260508205714 | 51 | 198 | 0.0 | 0.0 | 0.00 | 0.00 | 0.00 | 40 | 1002.9 |
| 20260508205211 | 51 | 214 | 0.0 | 0.0 | 0.00 | 0.00 | 0.00 | 40 | 1002.6 |
| 20260508204707 | 51 | 174 | 0.0 | 0.0 | 0.00 | 0.00 | 0.00 | 38 | 1002.6 |
| 20260508204204 | 51 | 107 | 0.0 | 0.0 | 0.00 | 0.00 | 0.00 | 41 | 1002.6 |
| 20260508203700 | 51 | 37 | 0.0 | 0.0 | 0.00 | 0.00 | 0.00 | 38 | 1002.6 |
| 20260508203156 | 51 | 223 | 0.0 | 0.0 | 0.00 | 0.00 | 0.00 | 38 | 1002.6 |
| 20260508202652 | 51 | 280 | 0.0 | 0.0 | 0.00 | 0.00 | 0.00 | 37 | 1002.6 |
| 20260508202149 | 51 | 190 | 0.0 | 0.0 | 0.00 | 0.00 | 0.00 | 37 | 1002.2 |
| 20260508201646 | 51 | 156 | 0.0 | 0.0 | 0.00 | 0.00 | 0.00 | 37 | 1002.6 |
| 20260508201143 | 53 | 314 | 0.0 | 0.0 | 0.00 | 0.00 | 0.00 | 36 | 1002.2 |
| 20260508200639 | 53 | 145 | 0.0 | 0.0 | 0.00 | 0.00 | 0.00 | 35 | 1002.2 |
| 20260508200136 | 52 | 358 | 0.0 | 0.0 | 0.00 | 0.00 | 0.00 | 38 | 1002.2 |
| 20260508195632 | 51 | 3 | 0.0 | 0.0 | 0.00 | 0.00 | 0.00 | 38 | 1002.2 |
| 20260508195129 | 50 | 5 | 0.0 | 0.0 | 0.00 | 0.00 | 0.00 | 41 | 1002.2 |
| 20260508194625 | 51 | 336 | 0.0 | 0.0 | 0.00 | 0.00 | 0.00 | 38 | 1002.6 |
| 20260508194123 | 51 | 3 | 0.0 | 0.0 | 0.00 | 0.00 | 0.00 | 37 | 1002.2 |
| 20260508193619 | 52 | 28 | 0.0 | 0.0 | 0.00 | 0.00 | 0.00 | 37 | 1002.2 |
| 20260508193116 | 52 | 290 | 0.0 | 0.0 | 0.00 | 0.00 | 0.00 | 42 | 1002.2 |
| 20260508192613 | 52 | 222 | 0.0 | 0.0 | 0.00 | 0.00 | 0.00 | 43 | 1002.2 |
| 20260508192110 | 51 | 187 | 0.0 | 0.0 | 0.00 | 0.00 | 0.00 | 40 | 1002.6 |
| 20260508191607 | 51 | 264 | 0.0 | 0.0 | 0.00 | 0.00 | 0.00 | 43 | 1002.2 |
| 20260508191103 | 51 | 289 | 0.0 | 0.0 | 0.00 | 0.00 | 0.00 | 43 | 1002.2 |
| 20260508190600 | 51 | 47 | 0.0 | 0.0 | 0.00 | 0.00 | 0.00 | 43 | 1002.2 |
| 20260508190057 | 51 | 221 | 0.0 | 2.0 | 0.00 | 0.00 | 0.00 | 39 | 1002.2 |
| 20260508185554 | 52 | 23 | 0.0 | 0.0 | 0.00 | 0.00 | 0.00 | 40 | 1002.2 |
| 20260508185052 | 53 | 100 | 0.0 | 0.0 | 0.00 | 0.00 | 0.00 | 37 | 1002.6 |
| 20260508184549 | 55 | 327 | 0.0 | 0.0 | 0.00 | 0.00 | 0.00 | 40 | 1002.2 |
| 20260508184045 | 52 | 197 | 0.0 | 0.0 | 0.00 | 0.00 | 0.00 | 43 | 1002.2 |
| 20260508183542 | 51 | 215 | 0.0 | 0.0 | 0.00 | 0.00 | 0.00 | 42 | 1002.6 |
| 20260508183038 | 51 | 240 | 0.0 | 2.0 | 0.00 | 0.00 | 0.00 | 42 | 1002.2 |
| 20260508182535 | 52 | 280 | 0.0 | 0.0 | 0.00 | 0.00 | 0.00 | 39 | 1002.2 |
| 20260508182031 | 52 | 222 | 0.0 | 0.0 | 0.00 | 0.00 | 0.00 | 43 | 1002.2 |
| 20260508181526 | 52 | 332 | 0.0 | 0.0 | 0.00 | 0.00 | 0.00 | 41 | 1002.2 |
| 20260508181025 | 51 | 276 | 0.0 | 0.0 | 0.00 | 0.00 | 0.00 | 44 | 1002.2 |
| 20260508180521 | 51 | 259 | 0.0 | 0.0 | 0.00 | 0.00 | 0.00 | 43 | 1002.6 |
| 20260508180017 | 50 | 355 | 0.0 | 0.0 | 0.00 | 0.00 | 0.00 | 40 | 1002.6 |
| 20260508175514 | 51 | 188 | 0.0 | 0.0 | 0.00 | 0.00 | 0.00 | 42 | 1002.2 |
| 20260508175011 | 51 | 229 | 0.0 | 0.0 | 0.00 | 0.00 | 0.00 | 40 | 1002.2 |
| 20260508174509 | 50 | 250 | 0.0 | 0.0 | 0.00 | 0.00 | 0.00 | 42 | 1002.2 |
| 20260508174005 | 50 | 349 | 0.0 | 0.0 | 0.00 | 0.00 | 0.00 | 42 | 1002.2 |
| 20260508173503 | 51 | 202 | 0.0 | 0.0 | 0.00 | 0.00 | 0.00 | 43 | 1002.2 |
| 20260508172959 | 50 | 345 | 0.0 | 0.0 | 0.00 | 0.00 | 0.00 | 44 | 1002.2 |
| 20260508172455 | 49 | 160 | 0.0 | 0.0 | 0.00 | 0.00 | 0.00 | 43 | 1002.2 |
| 20260508171952 | 49 | 0 | 1.0 | 2.0 | 0.00 | 0.00 | 0.00 | 44 | 1002.2 |
| 20260508171449 | 49 | 302 | 0.0 | 2.0 | 0.00 | 0.00 | 0.00 | 43 | 1002.2 |
| 20260508170945 | 49 | 304 | 0.0 | 0.0 | 0.00 | 0.00 | 0.00 | 44 | 1002.2 |
| 20260508170443 | 51 | 43 | 0.0 | 0.0 | 0.00 | 0.00 | 0.00 | 43 | 1001.9 |
| 20260508165939 | 53 | 27 | 0.0 | 0.0 | 0.00 | 0.00 | 0.00 | 39 | 1001.9 |
| 20260508165437 | 53 | 13 | 0.0 | 2.0 | 0.00 | 0.00 | 0.00 | 41 | 1001.9 |
| 20260508164933 | 53 | 209 | 0.0 | 0.0 | 0.00 | 0.00 | 0.00 | 44 | 1001.9 |
| 20260508164430 | 50 | 66 | 0.0 | 0.0 | 0.00 | 0.00 | 0.00 | 46 | 1001.9 |
| 20260508163927 | 49 | 3 | 0.0 | 0.0 | 0.00 | 0.00 | 0.00 | 43 | 1001.9 |
| 20260508163425 | 49 | 256 | 0.0 | 0.0 | 0.00 | 0.00 | 0.00 | 44 | 1001.9 |
| 20260508162920 | 51 | 25 | 0.0 | 0.0 | 0.00 | 0.00 | 0.00 | 45 | 1002.2 |
| 20260508162418 | 51 | 82 | 0.0 | 0.0 | 0.00 | 0.00 | 0.00 | 46 | 1001.9 |
| 20260508161915 | 50 | 186 | 0.0 | 0.0 | 0.00 | 0.00 | 0.00 | 46 | 1001.9 |
| 20260508161412 | 51 | 40 | 0.0 | 0.0 | 0.00 | 0.00 | 0.00 | 46 | 1001.9 |
| 20260508160909 | 52 | 207 | 0.0 | 0.0 | 0.00 | 0.00 | 0.00 | 44 | 1001.9 |
| 20260508160408 | 52 | 231 | 0.0 | 0.0 | 0.00 | 0.00 | 0.00 | 47 | 1002.2 |
| 20260508155903 | 50 | 12 | 0.0 | 0.0 | 0.00 | 0.00 | 0.00 | 46 | 1002.2 |
| 20260508155401 | 50 | 25 | 0.0 | 0.0 | 0.00 | 0.00 | 0.00 | 46 | 1002.2 |
| 20260508154858 | 51 | 143 | 0.0 | 0.0 | 0.00 | 0.00 | 0.00 | 47 | 1002.2 |
| 20260508154355 | 50 | 185 | 0.0 | 0.0 | 0.00 | 0.00 | 0.00 | 47 | 1002.2 |
| 20260508153852 | 50 | 9 | 0.0 | 0.0 | 0.00 | 0.00 | 0.00 | 49 | 1002.6 |
| 20260508153349 | 50 | 20 | 0.0 | 0.0 | 0.00 | 0.00 | 0.00 | 54 | 1002.2 |
| 20260508152845 | 49 | 99 | 0.0 | 0.0 | 0.00 | 0.00 | 0.00 | 51 | 1002.6 |
| 20260508152342 | 49 | 74 | 0.0 | 0.0 | 0.00 | 0.00 | 0.00 | 52 | 1002.6 |
| 20260508151838 | 49 | 3 | 2.0 | 5.0 | 0.00 | 0.00 | 0.00 | 51 | 1002.6 |
| 20260508151335 | 48 | 230 | 0.0 | 0.0 | 0.00 | 0.00 | 0.00 | 52 | 1002.6 |
| 20260508150831 | 47 | 209 | 0.0 | 0.0 | 0.00 | 0.00 | 0.00 | 49 | 1002.6 |
| 20260508150328 | 48 | 201 | 0.0 | 5.0 | 0.00 | 0.00 | 0.00 | 52 | 1002.6 |
| 20260508145824 | 48 | 198 | 0.0 | 0.0 | 0.00 | 0.00 | 0.00 | 52 | 1002.6 |
| 20260508145321 | 48 | 100 | 0.0 | 0.0 | 0.00 | 0.00 | 0.00 | 52 | 1002.6 |
| 20260508144818 | 48 | 187 | 0.0 | 0.0 | 0.00 | 0.00 | 0.00 | 53 | 1002.6 |
| 20260508144316 | 48 | 232 | 0.0 | 0.0 | 0.00 | 0.00 | 0.00 | 56 | 1002.9 |
| 20260508143813 | 47 | 20 | 0.0 | 0.0 | 0.00 | 0.00 | 0.00 | 54 | 1002.9 |